Regional Weather Roundup
Issued by NWS

Home | Current Version | Previous Version | Text Only | Print | Product List | Glossary On
Versions: 1 2 3 4 5 6 7 8 9 10 11 12 13 14 15 16 17 18 19 20 21 22 23 24 25 26 27 28 29 30 31 32 33 34 35 36 37 38 39 40 41 42 43 44 45 46 47 48 49 50
000
ASUS43 KLSX 301207
RWRMO

WEATHER SUMMARY FOR MISSOURI
NATIONAL WEATHER SERVICE SPRINGFIELD MO
700 AM CDT THU OCT 30 2014

NOTE: "FAIR" INDICATES FEW OR NO CLOUDS BELOW 12,000 FEET WITH NO
       SIGNIFICANT WEATHER AND/OR OBSTRUCTIONS TO VISIBILITY.
       CURRENT SKY AND/OR WEATHER CONDITIONS ARE NOT AVAILABLE FOR
       CHILLICOTHE AND FARMINGTON.

MOZ001>031-035>038-043-044-053-054-301300-
...NORTHERN AND WESTERN MISSOURI...

CITY           SKY/WX    TMP DP  RH WIND       PRES   REMARKS
KANSAS CTY INT MOCLDY    51  41  68 SW8       30.00R
6HR MIN TEMP:  45; 6HR MAX TEMP:  54;

KANSAS C DTWN  CLOUDY    52  40  63 CALM      30.00S
6HR MIN TEMP:  47; 6HR MAX TEMP:  52;

LEE`S SUMMIT   MOCLDY    49  38  65 SW9       30.01F
6HR MIN TEMP:  48; 6HR MAX TEMP:  50;

ST JOSEPH      PTCLDY    43  37  79 CALM      30.00F
6HR MIN TEMP:  39; 6HR MAX TEMP:  50;

CHILLICOTHE      N/A     48  36  63 SE12      30.04F
6HR MIN TEMP:  41; 6HR MAX TEMP:  48;

KIRKSVILLE     LGT RAIN  43  38  82 S13       30.08F
6HR MIN TEMP:  34; 6HR MAX TEMP:  43; 6HR PCP: TRACE;


$$
MOZ066>068-077>081-088>096-101>105-301300-
...SOUTHWEST MISSOURI...

CITY           SKY/WX    TMP DP  RH WIND       PRES   REMARKS
SPRINGFIELD    CLEAR     45  35  68 S12       30.10S
6HR MIN TEMP:  43; 6HR MAX TEMP:  45;

JOPLIN         MOCLDY    50  39  66 S9        30.09S
6HR MIN TEMP:  46; 6HR MAX TEMP:  50;


$$
MOZ032>034-039>042-045>050-055>058-069>072-301300-
...CENTRAL MISSOURI...

CITY           SKY/WX    TMP DP  RH WIND       PRES   REMARKS
COLUMBIA       MOCLDY    40  35  83 SE8       30.09F
6HR MIN TEMP:  39; 6HR MAX TEMP:  44;

JEFFERSON CITY PTCLDY    36  34  92 SE3       30.11F
6HR MIN TEMP:  35; 6HR MAX TEMP:  40;

ROLLA          CLEAR     40  31  70 S8        30.09F
6HR MIN TEMP:  36; 6HR MAX TEMP:  45;

SEDALIA        PTCLDY    46  35  65 S9        30.06F
6HR MIN TEMP:  41; 6HR MAX TEMP:  46;

WHITEMAN AFB   PTCLDY    44  37  74 S8        30.03F
OSAGE BEACH    CLEAR     41  30  65 SE7       30.09S

$$
MOZ051-052-059>065-301300-
...EAST CENTRAL MISSOURI...

CITY           SKY/WX    TMP DP  RH WIND       PRES   REMARKS
ST LOUIS INTL  PTCLDY    41  35  79 E7        30.15S
6HR MIN TEMP:  39; 6HR MAX TEMP:  44;

SPIRIT OF STL  PTCLDY    34  32  92 CALM      30.14F
6HR MIN TEMP:  33; 6HR MAX TEMP:  37;

ST CHARLES     CLEAR     37  35  92 E8        30.15S
6HR MIN TEMP:  36; 6HR MAX TEMP:  40;


$$
MOZ072>076-082>087-097>100-106>115-301300-
...SOUTH CENTRAL AND SOUTHEAST MISSOURI...

CITY           SKY/WX    TMP DP  RH WIND       PRES   REMARKS
CAPE GIRARDEAU MOCLDY    33  32  96 CALM      30.18R
6HR MIN TEMP:  33; 6HR MAX TEMP:  39;

FARMINGTON     CLEAR     32  28  86 CALM      30.16S
6HR MIN TEMP:  30; 6HR MAX TEMP:  36;

POPLAR BLUFF   CLEAR     35  32  88 CALM      30.16S
6HR MIN TEMP:  35; 6HR MAX TEMP:  39;

WEST PLAINS    CLEAR     36  31  82 CALM      30.15S
6HR MIN TEMP:  36; 6HR MAX TEMP:  40;


$$



USA.gov is the U.S. government's official web portal to all federal, state and local government web resources and services.